This is the latest recevied weather packets stored in our database for station/object DL4NBA-1. If no packets are shown the sender has not sent any weather packets the latest 10 day(s).
| Time | Temp. | Humidity | Pressure | Rain* | Wind** | Luminosity | Snow |
|---|---|---|---|---|---|---|---|
| 1777484826 | 16.67° C | - | - | 0 mm | 4.92 m/s, 13° | - | - |
| 1777484525 | 16.11° C | - | - | 0 mm | 4.47 m/s, 11° | - | - |
| 1777484226 | 16.67° C | - | - | 0 mm | 5.36 m/s, 13° | - | - |
| 1777483927 | 17.22° C | - | - | 0 mm | 4.02 m/s, 354° | - | - |
| 1777483628 | 16.11° C | - | - | 0 mm | 7.15 m/s, 8° | - | - |
| 1777483329 | 17.78° C | - | - | 0 mm | 6.71 m/s, 10° | - | - |
| 1777483026 | 19.44° C | - | - | 0 mm | 5.36 m/s, 349° | - | - |
| 1777482727 | 20° C | - | - | 0 mm | 4.92 m/s, 59° | - | - |
| 1777482428 | 20.56° C | - | - | 0 mm | 4.47 m/s, 80° | - | - |
| 1777481830 | 20.56° C | - | - | 0 mm | 4.92 m/s, 51° | - | - |
| 1777481527 | 20.56° C | - | - | 0 mm | 4.47 m/s, 39° | - | - |
| 1777481229 | 20° C | - | - | 0 mm | 4.47 m/s, 42° | - | - |
| 1777480930 | 20.56° C | - | - | 0 mm | 5.36 m/s, 41° | - | - |
| 1777480631 | 21.11° C | - | - | 0 mm | 4.47 m/s, 45° | - | - |
| 1777480332 | 20.56° C | - | - | 0 mm | 4.02 m/s, 357° | - | - |
| 1777480030 | 20° C | - | - | 0 mm | 5.36 m/s, 34° | - | - |
| 1777479730 | 18.33° C | - | - | 0 mm | 5.36 m/s, 30° | - | - |
| 1777479431 | 17.78° C | - | - | 0 mm | 5.81 m/s, 339° | - | - |
| 1777479132 | 18.33° C | - | - | 0 mm | 5.81 m/s, 39° | - | - |
| 1777478833 | 17.78° C | - | - | 0 mm | 5.81 m/s, 69° | - | - |
| 1777478531 | 17.78° C | - | - | 0 mm | 4.92 m/s, 45° | - | - |
| 1777478232 | 18.33° C | - | - | 0 mm | 4.47 m/s, 42° | - | - |
| 1777477933 | 17.78° C | - | - | 0 mm | 7.15 m/s, 31° | - | - |
| 1777477634 | 18.33° C | - | - | 0 mm | 5.36 m/s, 51° | - | - |
| 1777477335 | 19.44° C | - | - | 0 mm | 5.36 m/s, 30° | - | - |
* Rain latest hour (hover to see other rain measurements)
** Current wind speed in m/s (hover to see current wind gust speed)